Time,TemperatureF,DewpointF,PressureIn,WindDirection,WindDirectionDegrees,WindSpeedMPH,WindSpeedGustMPH,Humidity,HourlyPrecipIn,Conditions,Clouds,dailyrainin,SoftwareType,DateUTC
2013-06-04 00:01:00,49.3,30.4,0.00,East,85,0.0,0.0,48,0.00,,---,0.00,VWS V14.01,2013-06-04 04:01:00,
2013-06-04 00:06:00,49.3,30.4,0.00,NE,38,0.0,0.0,48,0.00,,---,0.00,VWS V14.01,2013-06-04 04:06:00,
2013-06-04 00:11:00,48.7,29.9,0.00,South,178,2.7,2.7,48,0.00,,---,0.00,VWS V14.01,2013-06-04 04:11:00,
2013-06-04 00:16:00,48.7,29.9,0.00,SSE,154,0.0,0.0,48,0.00,,---,0.00,VWS V14.01,2013-06-04 04:16:00,
2013-06-04 00:21:00,48.7,29.9,0.00,NW,326,2.2,2.2,48,0.00,,---,0.00,VWS V14.01,2013-06-04 04:21:00,
2013-06-04 00:27:00,48.6,30.3,0.00,SSE,152,2.2,2.2,49,0.00,,---,0.00,VWS V14.01,2013-06-04 04:27:00,
2013-06-04 00:32:00,48.6,30.3,0.00,East,96,0.0,2.2,49,0.00,,---,0.00,VWS V14.01,2013-06-04 04:32:00,
2013-06-04 00:37:00,48.6,30.3,0.00,East,96,0.0,0.0,49,0.00,,---,0.00,VWS V14.01,2013-06-04 04:37:00,
2013-06-04 00:42:00,48.6,30.8,0.00,SW,221,0.0,0.0,50,0.00,,---,0.00,VWS V14.01,2013-06-04 04:42:00,
2013-06-04 00:47:00,48.6,30.8,0.00,SE,142,0.0,0.0,50,0.00,,---,0.00,VWS V14.01,2013-06-04 04:47:00,
2013-06-04 00:52:00,48.2,30.5,0.00,ESE,115,0.0,0.0,50,0.00,,---,0.00,VWS V14.01,2013-06-04 04:52:00,
2013-06-04 00:57:00,48.2,30.5,0.00,ESE,110,3.1,3.1,50,0.00,,---,0.00,VWS V14.01,2013-06-04 04:57:00,
2013-06-04 01:02:00,48.4,30.6,0.00,East,83,2.7,2.7,50,0.00,,---,0.00,VWS V14.01,2013-06-04 05:02:00,
2013-06-04 01:07:00,48.4,30.6,0.00,SSE,158,0.0,0.0,50,0.00,,---,0.00,VWS V14.01,2013-06-04 05:07:00,
2013-06-04 01:12:00,48.4,30.6,0.00,SSE,158,0.0,0.0,50,0.00,,---,0.00,VWS V14.01,2013-06-04 05:12:00,
2013-06-04 01:17:00,48.2,30.5,0.00,SW,230,2.7,2.7,50,0.00,,---,0.00,VWS V14.01,2013-06-04 05:17:00,
2013-06-04 01:22:00,48.2,30.5,0.00,SW,226,0.0,0.0,50,0.00,,---,0.00,VWS V14.01,2013-06-04 05:22:00,
2013-06-04 01:27:00,48.2,30.5,0.00,ESE,119,0.0,0.0,50,0.00,,---,0.00,VWS V14.01,2013-06-04 05:27:00,
2013-06-04 01:32:00,48.4,30.6,0.00,South,175,4.0,4.0,50,0.00,,---,0.00,VWS V14.01,2013-06-04 05:32:00,
2013-06-04 01:37:00,48.2,30.5,0.00,East,83,3.6,3.6,50,0.00,,---,0.00,VWS V14.01,2013-06-04 05:37:00,
2013-06-04 01:42:00,48.2,30.5,0.00,SE,126,0.0,0.0,50,0.00,,---,0.00,VWS V14.01,2013-06-04 05:42:00,
2013-06-04 01:47:00,48.2,30.5,0.00,SW,235,2.7,2.7,50,0.00,,---,0.00,VWS V14.01,2013-06-04 05:47:00,
2013-06-04 01:52:00,48.2,30.5,0.00,East,96,2.7,2.7,50,0.00,,---,0.00,VWS V14.01,2013-06-04 05:52:00,
2013-06-04 01:57:00,48.0,30.8,0.00,East,95,3.1,3.1,51,0.00,,---,0.00,VWS V14.01,2013-06-04 05:57:00,
2013-06-04 02:02:00,47.8,30.6,0.00,East,94,2.7,2.7,51,0.00,,---,0.00,VWS V14.01,2013-06-04 06:02:00,
2013-06-04 02:07:00,47.8,30.6,0.00,South,188,0.0,2.7,51,0.00,,---,0.00,VWS V14.01,2013-06-04 06:07:00,
2013-06-04 02:12:00,47.8,30.6,0.00,NNW,335,2.7,2.7,51,0.00,,---,0.00,VWS V14.01,2013-06-04 06:12:00,
2013-06-04 02:17:00,47.8,30.6,0.00,SE,125,0.0,0.0,51,0.00,,---,0.00,VWS V14.01,2013-06-04 06:17:00,
2013-06-04 02:22:00,47.7,30.4,0.00,SSE,153,2.7,2.7,51,0.00,,---,0.00,VWS V14.01,2013-06-04 06:22:00,
2013-06-04 02:27:00,47.7,30.4,0.00,SW,216,0.0,0.0,51,0.00,,---,0.00,VWS V14.01,2013-06-04 06:27:00,
2013-06-04 02:32:00,47.7,30.4,0.00,SW,218,0.0,0.0,51,0.00,,---,0.00,VWS V14.01,2013-06-04 06:32:00,
2013-06-04 02:37:00,47.7,30.4,0.00,WSW,240,0.0,0.0,51,0.00,,---,0.00,VWS V14.01,2013-06-04 06:37:00,
2013-06-04 02:42:00,47.7,30.4,0.00,SSE,157,0.0,0.0,51,0.00,,---,0.00,VWS V14.01,2013-06-04 06:42:00,
2013-06-04 02:47:00,47.3,30.1,0.00,SE,131,2.7,2.7,51,0.00,,---,0.00,VWS V14.01,2013-06-04 06:47:00,
2013-06-04 02:52:00,47.3,30.1,0.00,SE,131,2.7,2.7,51,0.00,,---,0.00,VWS V14.01,2013-06-04 06:52:00,
2013-06-04 02:57:00,47.5,30.3,0.00,ESE,110,0.0,5.4,51,0.00,,---,0.00,VWS V14.01,2013-06-04 06:57:00,
2013-06-04 03:02:00,47.5,30.3,0.00,ESE,110,0.0,0.0,51,0.00,,---,0.00,VWS V14.01,2013-06-04 07:02:00,
2013-06-04 03:07:00,47.5,30.3,0.00,South,169,2.2,4.9,51,0.00,,---,0.00,VWS V14.01,2013-06-04 07:07:00,
2013-06-04 03:12:00,47.5,30.8,0.00,South,169,2.2,2.2,52,0.00,,---,0.00,VWS V14.01,2013-06-04 07:12:00,
2013-06-04 03:17:00,47.5,30.8,0.00,East,99,0.0,0.0,52,0.00,,---,0.00,VWS V14.01,2013-06-04 07:17:00,
2013-06-04 03:22:00,47.5,30.8,0.00,South,173,0.0,0.0,52,0.00,,---,0.00,VWS V14.01,2013-06-04 07:22:00,
2013-06-04 03:27:00,47.5,30.8,0.00,ESE,105,0.0,0.0,52,0.00,,---,0.00,VWS V14.01,2013-06-04 07:27:00,
2013-06-04 03:32:00,47.5,30.8,0.00,NNE,13,4.9,4.9,52,0.00,,---,0.00,VWS V14.01,2013-06-04 07:32:00,
2013-06-04 03:37:00,47.5,30.8,0.00,ENE,69,0.0,0.0,52,0.00,,---,0.00,VWS V14.01,2013-06-04 07:37:00,
2013-06-04 03:42:00,47.5,30.8,0.00,WSW,246,2.2,5.4,52,0.00,,---,0.00,VWS V14.01,2013-06-04 07:42:00,
2013-06-04 03:47:00,47.5,30.8,0.00,SE,139,0.0,0.0,52,0.00,,---,0.00,VWS V14.01,2013-06-04 07:47:00,
2013-06-04 03:52:00,47.5,30.8,0.00,SSE,160,0.0,0.0,52,0.00,,---,0.00,VWS V14.01,2013-06-04 07:52:00,
2013-06-04 03:57:00,47.3,30.6,0.00,SE,128,5.8,5.8,52,0.00,,---,0.00,VWS V14.01,2013-06-04 07:57:00,
2013-06-04 04:02:00,47.5,30.8,0.00,North,357,0.0,0.0,52,0.00,,---,0.00,VWS V14.01,2013-06-04 08:02:00,
2013-06-04 04:07:00,47.5,30.8,0.00,ESE,121,3.1,3.1,52,0.00,,---,0.00,VWS V14.01,2013-06-04 08:07:00,
2013-06-04 04:12:00,47.3,30.6,0.00,SW,232,0.0,0.0,52,0.00,,---,0.00,VWS V14.01,2013-06-04 08:12:00,
2013-06-04 04:17:00,47.3,30.6,0.00,WSW,244,0.0,0.0,52,0.00,,---,0.00,VWS V14.01,2013-06-04 08:17:00,
2013-06-04 04:22:00,47.5,30.8,0.00,West,271,2.7,2.7,52,0.00,,---,0.00,VWS V14.01,2013-06-04 08:22:00,
2013-06-04 04:27:00,47.5,30.8,0.00,SW,232,0.0,0.0,52,0.00,,---,0.00,VWS V14.01,2013-06-04 08:27:00,
2013-06-04 04:32:00,47.5,30.8,0.00,SE,129,0.0,0.0,52,0.00,,---,0.00,VWS V14.01,2013-06-04 08:32:00,
2013-06-04 04:37:00,47.5,31.2,0.00,West,261,4.0,4.0,53,0.00,,---,0.00,VWS V14.01,2013-06-04 08:37:00,
2013-06-04 04:42:00,47.3,30.6,0.00,West,261,4.0,4.0,52,0.00,,---,0.00,VWS V14.01,2013-06-04 08:42:00,
2013-06-04 04:47:00,47.3,31.0,0.00,West,261,4.0,4.0,53,0.00,,---,0.00,VWS V14.01,2013-06-04 08:47:00,
2013-06-04 04:52:00,47.3,31.0,0.00,NNW,335,0.0,0.0,53,0.00,,---,0.00,VWS V14.01,2013-06-04 08:52:00,
2013-06-04 04:57:00,47.3,31.0,0.00,ENE,76,4.0,4.0,53,0.00,,---,0.00,VWS V14.01,2013-06-04 08:57:00,
2013-06-04 05:02:00,47.3,31.0,0.00,WSW,249,5.8,5.8,53,0.00,,---,0.00,VWS V14.01,2013-06-04 09:02:00,
2013-06-04 05:07:00,47.1,31.4,0.00,East,99,3.6,3.6,54,0.00,,---,0.00,VWS V14.01,2013-06-04 09:07:00,
2013-06-04 05:12:00,47.1,31.4,0.00,SW,224,0.0,0.0,54,0.00,,---,0.00,VWS V14.01,2013-06-04 09:12:00,
2013-06-04 05:17:00,47.1,31.4,0.00,SE,128,0.0,0.0,54,0.00,,---,0.00,VWS V14.01,2013-06-04 09:17:00,
2013-06-04 05:22:00,47.1,31.4,0.00,SE,128,0.0,0.0,54,0.00,,---,0.00,VWS V14.01,2013-06-04 09:22:00,
2013-06-04 05:27:00,47.1,31.4,0.00,West,281,0.0,0.0,54,0.00,,---,0.00,VWS V14.01,2013-06-04 09:27:00,
2013-06-04 05:32:00,47.1,31.4,0.00,WSW,249,2.7,2.7,54,0.00,,---,0.00,VWS V14.01,2013-06-04 09:32:00,
2013-06-04 05:37:00,47.1,31.4,0.00,WSW,249,2.7,2.7,54,0.00,,---,0.00,VWS V14.01,2013-06-04 09:37:00,
2013-06-04 05:42:00,47.1,31.8,0.00,NW,316,0.0,0.0,55,0.00,,---,0.00,VWS V14.01,2013-06-04 09:42:00,
2013-06-04 05:47:00,47.3,32.0,0.00,ENE,74,3.6,3.6,55,0.00,,---,0.00,VWS V14.01,2013-06-04 09:47:00,
2013-06-04 05:52:00,47.3,32.0,0.00,SW,222,4.9,4.9,55,0.00,,---,0.00,VWS V14.01,2013-06-04 09:52:00,
2013-06-04 05:57:00,47.3,32.0,0.00,SE,145,2.7,2.7,55,0.00,,---,0.00,VWS V14.01,2013-06-04 09:57:00,
2013-06-04 06:02:00,47.3,32.0,0.00,East,91,0.0,0.0,55,0.00,,---,0.00,VWS V14.01,2013-06-04 10:02:00,
2013-06-04 06:07:00,47.1,31.8,0.00,South,189,0.0,3.1,55,0.00,,---,0.00,VWS V14.01,2013-06-04 10:07:00,
2013-06-04 06:12:00,47.1,31.8,0.00,NW,314,4.0,4.0,55,0.00,,---,0.00,VWS V14.01,2013-06-04 10:12:00,
2013-06-04 06:17:00,47.1,31.8,0.00,SW,215,2.2,3.1,55,0.00,,---,0.00,VWS V14.01,2013-06-04 10:17:00,
2013-06-04 06:22:00,47.1,31.8,0.00,SW,233,0.0,2.2,55,0.00,,---,0.00,VWS V14.01,2013-06-04 10:22:00,
2013-06-04 06:27:00,47.1,31.8,0.00,WSW,244,0.0,0.0,55,0.00,,---,0.00,VWS V14.01,2013-06-04 10:27:00,
2013-06-04 06:32:00,46.9,31.6,0.00,SSW,201,2.7,2.7,55,0.00,,---,0.00,VWS V14.01,2013-06-04 10:32:00,
2013-06-04 06:37:00,46.9,32.1,0.00,West,273,4.0,4.0,56,0.00,,---,0.00,VWS V14.01,2013-06-04 10:37:00,
2013-06-04 06:42:00,46.9,32.1,0.00,West,267,4.0,4.0,56,0.00,,---,0.00,VWS V14.01,2013-06-04 10:42:00,
2013-06-04 06:47:00,46.9,32.1,0.00,WSW,248,2.7,2.7,56,0.00,,---,0.00,VWS V14.01,2013-06-04 10:47:00,
2013-06-04 06:52:00,46.9,32.1,0.00,ESE,105,5.4,5.4,56,0.00,,---,0.00,VWS V14.01,2013-06-04 10:52:00,
2013-06-04 06:57:00,46.9,32.1,0.00,South,185,3.6,3.6,56,0.00,,---,0.00,VWS V14.01,2013-06-04 10:57:00,
2013-06-04 07:02:00,46.9,31.6,0.00,South,185,3.6,3.6,55,0.00,,---,0.00,VWS V14.01,2013-06-04 11:02:00,
2013-06-04 07:07:00,46.9,31.6,0.00,WNW,289,3.6,4.9,55,0.00,,---,0.00,VWS V14.01,2013-06-04 11:07:00,
2013-06-04 07:12:00,46.9,31.6,0.00,SW,224,4.0,4.0,55,0.00,,---,0.00,VWS V14.01,2013-06-04 11:12:00,
2013-06-04 07:17:00,47.1,31.8,0.00,SW,224,4.0,4.0,55,0.00,,---,0.00,VWS V14.01,2013-06-04 11:17:00,
2013-06-04 07:22:00,47.1,32.2,0.00,North,3,2.2,2.2,56,0.00,,---,0.00,VWS V14.01,2013-06-04 11:22:00,
2013-06-04 07:27:00,47.1,32.2,0.00,North,0,0.0,0.0,56,0.00,,---,0.00,VWS V14.01,2013-06-04 11:27:00,
2013-06-04 07:32:00,47.3,32.4,0.00,NW,304,0.0,0.0,56,0.00,,---,0.00,VWS V14.01,2013-06-04 11:32:00,
2013-06-04 07:37:00,47.3,32.4,0.00,WSW,239,0.0,0.0,56,0.00,,---,0.00,VWS V14.01,2013-06-04 11:37:00,
2013-06-04 07:42:00,47.3,32.4,0.00,NNW,337,0.0,0.0,56,0.00,,---,0.00,VWS V14.01,2013-06-04 11:42:00,
2013-06-04 07:47:00,47.5,32.6,0.00,WNW,288,0.0,0.0,56,0.00,,---,0.00,VWS V14.01,2013-06-04 11:47:00,
2013-06-04 07:52:00,47.5,32.6,0.00,WNW,288,0.0,0.0,56,0.00,,---,0.00,VWS V14.01,2013-06-04 11:52:00,
2013-06-04 07:57:00,47.5,32.1,0.00,NNW,341,0.0,0.0,55,0.00,,---,0.00,VWS V14.01,2013-06-04 11:57:00,
2013-06-04 08:02:00,47.5,32.1,0.00,SW,227,3.1,3.1,55,0.00,,---,0.00,VWS V14.01,2013-06-04 12:02:00,
2013-06-04 08:07:00,47.5,32.1,0.00,WSW,247,0.0,0.0,55,0.00,,---,0.00,VWS V14.01,2013-06-04 12:07:00,
2013-06-04 08:12:00,47.7,32.8,0.00,WSW,247,0.0,0.0,56,0.00,,---,0.00,VWS V14.01,2013-06-04 12:12:00,
2013-06-04 08:17:00,47.7,32.8,0.00,NW,307,2.7,2.7,56,0.00,,---,0.00,VWS V14.01,2013-06-04 12:17:00,
2013-06-04 08:22:00,47.5,32.6,0.00,NNW,327,0.0,0.0,56,0.00,,---,0.00,VWS V14.01,2013-06-04 12:22:00,
2013-06-04 08:27:00,47.5,32.6,0.00,SSW,208,2.7,2.7,56,0.00,,---,0.00,VWS V14.01,2013-06-04 12:27:00,
2013-06-04 08:32:00,47.5,32.6,0.00,WNW,287,2.7,2.7,56,0.00,,---,0.00,VWS V14.01,2013-06-04 12:32:00,
2013-06-04 08:37:00,47.5,31.7,0.00,SW,230,3.6,3.6,54,0.00,,---,0.00,VWS V14.01,2013-06-04 12:37:00,
2013-06-04 08:42:00,47.5,31.7,0.00,South,170,4.0,4.0,54,0.00,,---,0.00,VWS V14.01,2013-06-04 12:42:00,
2013-06-04 08:47:00,47.8,31.5,0.00,North,357,0.0,0.0,53,0.00,,---,0.00,VWS V14.01,2013-06-04 12:47:00,
2013-06-04 08:52:00,47.8,31.5,0.00,NNE,20,0.0,0.0,53,0.00,,---,0.00,VWS V14.01,2013-06-04 12:52:00,
2013-06-04 08:57:00,48.2,31.4,0.00,West,261,0.0,0.0,52,0.00,,---,0.00,VWS V14.01,2013-06-04 12:57:00,
2013-06-04 09:02:00,48.2,31.4,0.00,ENE,72,0.0,0.0,52,0.00,,---,0.00,VWS V14.01,2013-06-04 13:02:00,
2013-06-04 09:07:00,48.4,31.1,0.00,North,4,2.2,2.7,51,0.00,,---,0.00,VWS V14.01,2013-06-04 13:07:00,
2013-06-04 09:12:00,48.6,31.3,0.00,NNW,340,2.2,2.2,51,0.00,,---,0.00,VWS V14.01,2013-06-04 13:12:00,
2013-06-04 09:17:00,48.6,31.3,0.00,NW,308,2.2,2.2,51,0.00,,---,0.00,VWS V14.01,2013-06-04 13:17:00,
2013-06-04 09:22:00,48.7,31.4,0.00,NW,308,2.2,2.2,51,0.00,,---,0.00,VWS V14.01,2013-06-04 13:22:00,
2013-06-04 09:27:00,48.7,31.4,0.00,WNW,289,5.8,5.8,51,0.00,,---,0.00,VWS V14.01,2013-06-04 13:27:00,
2013-06-04 09:32:00,49.1,31.3,0.00,SW,215,3.1,3.1,50,0.00,,---,0.00,VWS V14.01,2013-06-04 13:32:00,
2013-06-04 09:37:00,49.5,31.6,0.00,WSW,249,5.8,5.8,50,0.00,,---,0.00,VWS V14.01,2013-06-04 13:37:00,
2013-06-04 09:42:00,49.5,31.1,0.00,North,357,2.7,2.7,49,0.00,,---,0.00,VWS V14.01,2013-06-04 13:42:00,
2013-06-04 09:47:00,49.5,31.1,0.00,SE,146,3.6,3.6,49,0.00,,---,0.00,VWS V14.01,2013-06-04 13:47:00,
2013-06-04 09:52:00,49.6,30.8,0.00,NNW,348,2.7,3.6,48,0.00,,---,0.00,VWS V14.01,2013-06-04 13:52:00,
2013-06-04 09:57:00,49.6,30.8,0.00,NW,316,0.0,0.0,48,0.00,,---,0.00,VWS V14.01,2013-06-04 13:57:00,
2013-06-04 10:02:00,49.6,30.8,0.00,WSW,250,3.6,3.6,48,0.00,,---,0.00,VWS V14.01,2013-06-04 14:02:00,
2013-06-04 10:07:00,49.8,30.9,0.00,NE,34,4.0,4.0,48,0.00,,---,0.00,VWS V14.01,2013-06-04 14:07:00,
2013-06-04 10:12:00,50.0,30.6,0.00,WNW,286,3.1,3.1,47,0.00,,---,0.00,VWS V14.01,2013-06-04 14:12:00,
2013-06-04 10:17:00,50.2,30.8,0.00,SW,225,4.9,4.9,47,0.00,,---,0.00,VWS V14.01,2013-06-04 14:17:00,
2013-06-04 10:22:00,50.2,30.8,0.00,SSW,198,5.4,5.4,47,0.00,,---,0.00,VWS V14.01,2013-06-04 14:22:00,
2013-06-04 10:27:00,50.2,30.8,0.00,NW,320,3.6,3.6,47,0.00,,---,0.00,VWS V14.01,2013-06-04 14:27:00,
2013-06-04 10:32:00,50.5,31.1,0.00,WSW,244,0.0,0.0,47,0.00,,---,0.00,VWS V14.01,2013-06-04 14:32:00,
2013-06-04 10:37:00,50.5,31.1,0.00,South,184,4.0,4.0,47,0.00,,---,0.00,VWS V14.01,2013-06-04 14:37:00,
2013-06-04 10:42:00,50.9,31.4,0.00,West,260,2.7,2.7,47,0.00,,---,0.00,VWS V14.01,2013-06-04 14:42:00,
2013-06-04 10:47:00,51.1,31.6,0.00,SSW,203,3.1,3.1,47,0.00,,---,0.00,VWS V14.01,2013-06-04 14:47:00,
2013-06-04 10:52:00,51.1,31.6,0.00,WSW,256,2.2,2.2,47,0.00,,---,0.00,VWS V14.01,2013-06-04 14:52:00,
2013-06-04 10:57:00,51.4,31.4,0.00,SSE,159,0.0,0.0,46,0.00,,---,0.00,VWS V14.01,2013-06-04 14:57:00,
2013-06-04 11:02:00,51.4,31.4,0.00,WSW,245,3.1,3.1,46,0.00,,---,0.00,VWS V14.01,2013-06-04 15:02:00,
2013-06-04 11:07:00,51.8,31.1,0.00,East,99,0.0,0.0,45,0.00,,---,0.00,VWS V14.01,2013-06-04 15:07:00,
2013-06-04 11:12:00,52.0,31.3,0.00,NNE,22,3.6,3.6,45,0.00,,---,0.00,VWS V14.01,2013-06-04 15:12:00,
2013-06-04 11:17:00,52.3,31.6,0.00,SW,236,5.4,5.4,45,0.00,,---,0.00,VWS V14.01,2013-06-04 15:17:00,
2013-06-04 11:22:00,52.5,31.2,0.00,NW,312,4.0,4.0,44,0.00,,---,0.00,VWS V14.01,2013-06-04 15:22:00,
2013-06-04 11:27:00,52.5,30.7,0.00,WNW,287,3.1,3.1,43,0.00,,---,0.00,VWS V14.01,2013-06-04 15:27:00,
2013-06-04 11:32:00,52.7,30.9,0.00,WNW,283,4.0,4.0,43,0.00,,---,0.00,VWS V14.01,2013-06-04 15:32:00,
2013-06-04 11:37:00,52.9,31.0,0.00,ENE,59,4.0,4.0,43,0.00,,---,0.00,VWS V14.01,2013-06-04 15:37:00,
2013-06-04 11:42:00,53.1,31.2,0.00,NNE,28,2.2,2.2,43,0.00,,---,0.00,VWS V14.01,2013-06-04 15:42:00,
2013-06-04 11:47:00,53.2,31.3,0.00,East,87,3.6,3.6,43,0.00,,---,0.00,VWS V14.01,2013-06-04 15:47:00,
2013-06-04 11:52:00,53.2,31.3,0.00,ENE,62,3.1,3.1,43,0.00,,---,0.00,VWS V14.01,2013-06-04 15:52:00,
2013-06-04 11:57:00,54.1,32.2,0.00,NW,311,3.6,3.6,43,0.00,,---,0.00,VWS V14.01,2013-06-04 15:57:00,
2013-06-04 12:02:00,54.7,32.6,0.00,WNW,289,2.2,2.2,43,0.00,,---,0.00,VWS V14.01,2013-06-04 16:02:00,
2013-06-04 12:07:00,55.4,32.1,0.00,WSW,247,4.0,4.0,41,0.00,,---,0.00,VWS V14.01,2013-06-04 16:07:00,
2013-06-04 12:12:00,55.4,31.5,0.00,SE,132,4.9,4.9,40,0.00,,---,0.00,VWS V14.01,2013-06-04 16:12:00,
2013-06-04 12:17:00,55.4,31.5,0.00,ESE,121,0.0,0.0,40,0.00,,---,0.00,VWS V14.01,2013-06-04 16:17:00,
2013-06-04 12:22:00,55.9,32.0,0.00,WSW,253,2.2,2.2,40,0.00,,---,0.00,VWS V14.01,2013-06-04 16:22:00,
2013-06-04 12:27:00,55.9,32.0,0.00,West,279,3.6,3.6,40,0.00,,---,0.00,VWS V14.01,2013-06-04 16:27:00,
2013-06-04 12:32:00,55.8,31.2,0.00,WNW,286,3.6,3.6,39,0.00,,---,0.00,VWS V14.01,2013-06-04 16:32:00,
2013-06-04 12:37:00,55.8,31.2,0.00,WNW,289,6.3,6.3,39,0.00,,---,0.00,VWS V14.01,2013-06-04 16:37:00,
2013-06-04 12:42:00,55.9,31.4,0.00,South,180,3.1,3.1,39,0.00,,---,0.00,VWS V14.01,2013-06-04 16:42:00,
2013-06-04 12:47:00,55.9,31.4,0.00,South,172,2.7,2.7,39,0.00,,---,0.00,VWS V14.01,2013-06-04 16:47:00,
2013-06-04 12:52:00,55.9,31.4,0.00,NNW,345,4.0,4.0,39,0.00,,---,0.00,VWS V14.01,2013-06-04 16:52:00,
2013-06-04 12:57:00,56.3,32.3,0.00,ESE,113,0.0,0.0,40,0.00,,---,0.00,VWS V14.01,2013-06-04 16:57:00,
2013-06-04 13:02:00,57.2,32.5,0.00,WNW,295,3.1,3.1,39,0.00,,---,0.00,VWS V14.01,2013-06-04 17:02:00,
2013-06-04 13:07:00,57.2,32.5,0.00,ENE,75,0.0,0.0,39,0.00,,---,0.00,VWS V14.01,2013-06-04 17:07:00,
2013-06-04 13:12:00,57.2,32.5,0.00,South,171,0.0,0.0,39,0.00,,---,0.00,VWS V14.01,2013-06-04 17:12:00,
2013-06-04 13:17:00,57.6,32.8,0.00,South,171,0.0,0.0,39,0.00,,---,0.00,VWS V14.01,2013-06-04 17:17:00,
2013-06-04 13:22:00,57.9,32.5,0.00,West,273,2.7,2.7,38,0.00,,---,0.00,VWS V14.01,2013-06-04 17:22:00,
2013-06-04 13:27:00,57.7,31.7,0.00,West,278,4.0,4.0,37,0.00,,---,0.00,VWS V14.01,2013-06-04 17:27:00,
2013-06-04 13:32:00,57.7,31.7,0.00,East,84,3.1,3.1,37,0.00,,---,0.00,VWS V14.01,2013-06-04 17:32:00,
2013-06-04 13:37:00,57.7,31.7,0.00,SSW,208,4.9,4.9,37,0.00,,---,0.00,VWS V14.01,2013-06-04 17:37:00,
2013-06-04 13:42:00,59.0,32.1,0.00,West,277,0.0,0.0,36,0.00,,---,0.00,VWS V14.01,2013-06-04 17:42:00,
2013-06-04 13:47:00,59.0,32.1,0.00,SW,220,3.6,3.6,36,0.00,,---,0.00,VWS V14.01,2013-06-04 17:47:00,
2013-06-04 13:52:00,59.4,32.4,0.00,SW,220,3.6,3.6,36,0.00,,---,0.00,VWS V14.01,2013-06-04 17:52:00,
2013-06-04 13:57:00,59.7,32.7,0.00,SW,220,3.6,3.6,36,0.00,,---,0.00,VWS V14.01,2013-06-04 17:57:00,
2013-06-04 14:02:00,59.9,32.9,0.00,WSW,253,5.8,5.8,36,0.00,,---,0.00,VWS V14.01,2013-06-04 18:02:00,
2013-06-04 14:07:00,60.1,33.1,0.00,SSW,205,3.6,3.6,36,0.00,,---,0.00,VWS V14.01,2013-06-04 18:07:00,
2013-06-04 14:12:00,60.3,33.2,0.00,West,276,2.7,2.7,36,0.00,,---,0.00,VWS V14.01,2013-06-04 18:12:00,
2013-06-04 14:17:00,60.6,33.5,0.00,West,262,3.6,3.6,36,0.00,,---,0.00,VWS V14.01,2013-06-04 18:17:00,
2013-06-04 14:22:00,60.4,33.4,0.00,West,262,3.6,3.6,36,0.00,,---,0.00,VWS V14.01,2013-06-04 18:22:00,
2013-06-04 14:27:00,60.6,33.5,0.00,West,270,3.1,3.1,36,0.00,,---,0.00,VWS V14.01,2013-06-04 18:27:00,
2013-06-04 14:32:00,61.0,33.2,0.00,West,265,9.6,9.6,35,0.00,,---,0.00,VWS V14.01,2013-06-04 18:32:00,
2013-06-04 14:37:00,61.0,33.2,0.00,NNW,327,4.0,5.8,35,0.00,,---,0.00,VWS V14.01,2013-06-04 18:37:00,
2013-06-04 14:42:00,61.2,33.3,0.00,ESE,103,0.0,0.0,35,0.00,,---,0.00,VWS V14.01,2013-06-04 18:42:00,
2013-06-04 14:47:00,61.2,33.3,0.00,WSW,258,2.7,2.7,35,0.00,,---,0.00,VWS V14.01,2013-06-04 18:47:00,
2013-06-04 14:52:00,61.2,33.3,0.00,WSW,252,3.1,3.1,35,0.00,,---,0.00,VWS V14.01,2013-06-04 18:52:00,
2013-06-04 14:57:00,60.8,33.0,0.00,NE,56,2.7,2.7,35,0.00,,---,0.00,VWS V14.01,2013-06-04 18:57:00,
2013-06-04 15:02:00,60.8,33.0,0.00,WSW,238,2.7,2.7,35,0.00,,---,0.00,VWS V14.01,2013-06-04 19:02:00,
2013-06-04 15:07:00,61.2,33.3,0.00,SW,220,3.1,3.1,35,0.00,,---,0.00,VWS V14.01,2013-06-04 19:07:00,
2013-06-04 15:12:00,61.2,33.3,0.00,NW,309,3.1,3.1,35,0.00,,---,0.00,VWS V14.01,2013-06-04 19:12:00,
2013-06-04 15:17:00,60.6,32.8,0.00,East,100,3.1,3.1,35,0.00,,---,0.00,VWS V14.01,2013-06-04 19:17:00,
2013-06-04 15:22:00,60.8,33.0,0.00,WNW,294,4.9,5.4,35,0.00,,---,0.00,VWS V14.01,2013-06-04 19:22:00,
2013-06-04 15:27:00,60.8,33.0,0.00,SE,130,2.7,4.0,35,0.00,,---,0.00,VWS V14.01,2013-06-04 19:27:00,
2013-06-04 15:32:00,61.0,33.2,0.00,East,89,2.7,2.7,35,0.00,,---,0.00,VWS V14.01,2013-06-04 19:32:00,
2013-06-04 15:37:00,61.0,33.2,0.00,East,89,2.7,2.7,35,0.00,,---,0.00,VWS V14.01,2013-06-04 19:37:00,
2013-06-04 15:42:00,61.0,33.2,0.00,NW,306,0.0,0.0,35,0.00,,---,0.00,VWS V14.01,2013-06-04 19:42:00,
2013-06-04 15:47:00,61.0,33.2,0.00,ESE,103,2.7,2.7,35,0.00,,---,0.00,VWS V14.01,2013-06-04 19:47:00,
2013-06-04 15:52:00,60.8,33.0,0.00,ESE,103,2.7,2.7,35,0.00,,---,0.00,VWS V14.01,2013-06-04 19:52:00,
2013-06-04 15:57:00,60.6,32.8,0.00,NNW,329,2.7,2.7,35,0.00,,---,0.00,VWS V14.01,2013-06-04 19:57:00,
2013-06-04 16:02:00,60.6,32.8,0.00,NNW,329,2.7,2.7,35,0.00,,---,0.00,VWS V14.01,2013-06-04 20:02:00,
2013-06-04 16:07:00,61.0,33.2,0.00,South,183,3.1,3.1,35,0.00,,---,0.00,VWS V14.01,2013-06-04 20:07:00,
2013-06-04 16:12:00,61.0,33.2,0.00,East,98,3.1,3.1,35,0.00,,---,0.00,VWS V14.01,2013-06-04 20:12:00,
2013-06-04 16:17:00,61.0,33.2,0.00,SSE,151,3.6,3.6,35,0.00,,---,0.00,VWS V14.01,2013-06-04 20:17:00,
2013-06-04 16:22:00,61.0,33.2,0.00,SSW,203,0.0,0.0,35,0.00,,---,0.00,VWS V14.01,2013-06-04 20:22:00,
2013-06-04 16:27:00,61.2,33.3,0.00,SSW,203,0.0,0.0,35,0.00,,---,0.00,VWS V14.01,2013-06-04 20:27:00,
2013-06-04 16:32:00,60.8,33.0,0.00,North,353,3.1,3.1,35,0.00,,---,0.00,VWS V14.01,2013-06-04 20:32:00,
2013-06-04 16:37:00,60.6,32.8,0.00,WNW,288,0.0,0.0,35,0.00,,---,0.00,VWS V14.01,2013-06-04 20:37:00,
2013-06-04 16:42:00,60.4,33.4,0.00,WNW,288,0.0,0.0,36,0.00,,---,0.00,VWS V14.01,2013-06-04 20:42:00,
2013-06-04 16:47:00,60.6,32.8,0.00,ENE,75,0.0,0.0,35,0.00,,---,0.00,VWS V14.01,2013-06-04 20:47:00,
2013-06-04 16:52:00,60.6,32.8,0.00,SW,221,0.0,0.0,35,0.00,,---,0.00,VWS V14.01,2013-06-04 20:52:00,
2013-06-04 16:57:00,60.3,32.5,0.00,NW,319,2.7,2.7,35,0.00,,---,0.00,VWS V14.01,2013-06-04 20:57:00,
2013-06-04 17:02:00,60.1,33.1,0.00,West,266,4.0,4.0,36,0.00,,---,0.00,VWS V14.01,2013-06-04 21:02:00,
2013-06-04 17:07:00,60.3,33.2,0.00,SSE,154,5.4,5.4,36,0.00,,---,0.00,VWS V14.01,2013-06-04 21:07:00,
2013-06-04 17:12:00,60.4,32.7,0.00,SSE,161,3.6,3.6,35,0.00,,---,0.00,VWS V14.01,2013-06-04 21:12:00,
2013-06-04 17:17:00,60.4,32.7,0.00,NNW,329,4.0,4.0,35,0.00,,---,0.00,VWS V14.01,2013-06-04 21:17:00,
2013-06-04 17:22:00,60.4,32.7,0.00,WSW,240,0.0,0.0,35,0.00,,---,0.00,VWS V14.01,2013-06-04 21:22:00,
2013-06-04 17:27:00,60.1,32.4,0.00,NNW,328,0.0,0.0,35,0.00,,---,0.00,VWS V14.01,2013-06-04 21:27:00,
2013-06-04 17:32:00,59.7,32.0,0.00,East,93,2.2,2.2,35,0.00,,---,0.00,VWS V14.01,2013-06-04 21:32:00,
2013-06-04 17:37:00,59.7,32.0,0.00,NW,321,3.1,3.1,35,0.00,,---,0.00,VWS V14.01,2013-06-04 21:37:00,
2013-06-04 17:42:00,59.5,31.9,0.00,ENE,62,0.0,2.7,35,0.00,,---,0.00,VWS V14.01,2013-06-04 21:42:00,
2013-06-04 17:47:00,59.5,31.9,0.00,WNW,298,0.0,0.0,35,0.00,,---,0.00,VWS V14.01,2013-06-04 21:47:00,
2013-06-04 17:52:00,59.7,32.0,0.00,West,261,2.2,2.2,35,0.00,,---,0.00,VWS V14.01,2013-06-04 21:52:00,
2013-06-04 17:57:00,59.7,32.0,0.00,SE,125,0.0,0.0,35,0.00,,---,0.00,VWS V14.01,2013-06-04 21:57:00,
2013-06-04 18:02:00,60.3,32.5,0.00,WNW,286,2.7,2.7,35,0.00,,---,0.00,VWS V14.01,2013-06-04 22:02:00,
2013-06-04 18:07:00,60.3,32.5,0.00,North,353,0.0,0.0,35,0.00,,---,0.00,VWS V14.01,2013-06-04 22:07:00,
2013-06-04 18:12:00,60.1,32.4,0.00,SSW,204,0.0,0.0,35,0.00,,---,0.00,VWS V14.01,2013-06-04 22:12:00,
2013-06-04 18:17:00,60.3,32.5,0.00,East,97,0.0,0.0,35,0.00,,---,0.00,VWS V14.01,2013-06-04 22:17:00,
2013-06-04 18:22:00,60.1,32.4,0.00,West,262,3.1,3.1,35,0.00,,---,0.00,VWS V14.01,2013-06-04 22:22:00,
2013-06-04 18:27:00,60.1,32.4,0.00,WSW,248,0.0,0.0,35,0.00,,---,0.00,VWS V14.01,2013-06-04 22:27:00,
2013-06-04 18:32:00,60.1,32.4,0.00,East,87,4.5,4.5,35,0.00,,---,0.00,VWS V14.01,2013-06-04 22:32:00,
2013-06-04 18:37:00,60.1,32.4,0.00,NW,311,0.0,0.0,35,0.00,,---,0.00,VWS V14.01,2013-06-04 22:37:00,
2013-06-04 18:42:00,60.1,32.4,0.00,SE,144,0.0,0.0,35,0.00,,---,0.00,VWS V14.01,2013-06-04 22:42:00,
2013-06-04 18:47:00,60.1,32.4,0.00,SE,144,0.0,0.0,35,0.00,,---,0.00,VWS V14.01,2013-06-04 22:47:00,
2013-06-04 18:52:00,60.1,32.4,0.00,ESE,112,0.0,0.0,35,0.00,,---,0.00,VWS V14.01,2013-06-04 22:52:00,
2013-06-04 18:57:00,60.1,32.4,0.00,WNW,301,2.7,2.7,35,0.00,,---,0.00,VWS V14.01,2013-06-04 22:57:00,
2013-06-04 19:02:00,59.9,32.2,0.00,ESE,103,2.2,2.2,35,0.00,,---,0.00,VWS V14.01,2013-06-04 23:02:00,
2013-06-04 19:07:00,59.7,32.0,0.00,WSW,258,0.0,0.0,35,0.00,,---,0.00,VWS V14.01,2013-06-04 23:07:00,
2013-06-04 19:12:00,59.7,32.0,0.00,North,357,4.5,4.5,35,0.00,,---,0.00,VWS V14.01,2013-06-04 23:12:00,
2013-06-04 19:17:00,59.4,31.7,0.00,NNE,20,0.0,0.0,35,0.00,,---,0.00,VWS V14.01,2013-06-04 23:17:00,
2013-06-04 19:22:00,59.4,31.7,0.00,NNW,336,2.2,2.2,35,0.00,,---,0.00,VWS V14.01,2013-06-04 23:22:00,
2013-06-04 19:27:00,58.8,31.2,0.00,NNE,19,0.0,0.0,35,0.00,,---,0.00,VWS V14.01,2013-06-04 23:27:00,
2013-06-04 19:32:00,58.8,31.2,0.00,NNE,24,0.0,0.0,35,0.00,,---,0.00,VWS V14.01,2013-06-04 23:32:00,
2013-06-04 19:37:00,58.6,31.8,0.00,SSE,151,0.0,0.0,36,0.00,,---,0.00,VWS V14.01,2013-06-04 23:37:00,
2013-06-04 19:42:00,58.3,31.5,0.00,ESE,108,0.0,0.0,36,0.00,,---,0.00,VWS V14.01,2013-06-04 23:42:00,
2013-06-04 19:47:00,57.9,31.1,0.00,NNE,32,0.0,0.0,36,0.00,,---,0.00,VWS V14.01,2013-06-04 23:47:00,
2013-06-04 19:52:00,57.7,31.0,0.00,NNE,32,0.0,0.0,36,0.00,,---,0.00,VWS V14.01,2013-06-04 23:52:00,
2013-06-04 19:57:00,57.6,30.8,0.00,NNE,32,0.0,0.0,36,0.00,,---,0.00,VWS V14.01,2013-06-04 23:57:00,
2013-06-04 20:02:00,57.6,30.8,0.00,NNE,32,0.0,0.0,36,0.00,,---,0.00,VWS V14.01,2013-06-05 00:02:00,
2013-06-04 20:07:00,56.7,31.4,0.00,NNE,16,0.0,0.0,38,0.00,,---,0.00,VWS V14.01,2013-06-05 00:07:00,
2013-06-04 20:12:00,56.7,31.4,0.00,NNE,16,0.0,0.0,38,0.00,,---,0.00,VWS V14.01,2013-06-05 00:12:00,
2013-06-04 20:17:00,56.3,31.7,0.00,East,90,0.0,0.0,39,0.00,,---,0.00,VWS V14.01,2013-06-05 00:17:00,
2013-06-04 20:22:00,56.1,31.5,0.00,East,90,0.0,0.0,39,0.00,,---,0.00,VWS V14.01,2013-06-05 00:22:00,
2013-06-04 20:27:00,56.1,31.5,0.00,East,90,0.0,0.0,39,0.00,,---,0.00,VWS V14.01,2013-06-05 00:27:00,
2013-06-04 20:32:00,56.1,31.5,0.00,East,90,0.0,0.0,39,0.00,,---,0.00,VWS V14.01,2013-06-05 00:32:00,
2013-06-04 20:37:00,55.2,32.0,0.00,East,90,0.0,0.0,41,0.00,,---,0.00,VWS V14.01,2013-06-05 00:37:00,
2013-06-04 20:42:00,54.5,32.5,0.00,East,90,0.0,0.0,43,0.00,,---,0.71,VWS V14.01,2013-06-05 00:42:00,
2013-06-04 20:47:00,54.5,32.5,0.00,East,90,0.0,0.0,43,0.00,,---,0.00,VWS V14.01,2013-06-05 00:47:00,
2013-06-04 20:52:00,54.5,32.5,0.00,East,90,0.0,0.0,43,0.00,,---,0.00,VWS V14.01,2013-06-05 00:52:00,
2013-06-04 20:57:00,54.0,33.1,0.00,East,90,0.0,0.0,45,0.00,,---,0.00,VWS V14.01,2013-06-05 00:57:00,
2013-06-04 21:02:00,53.6,32.8,0.00,East,90,0.0,0.0,45,0.00,,---,0.00,VWS V14.01,2013-06-05 01:02:00,
2013-06-04 21:08:00,53.6,32.8,0.00,East,90,0.0,0.0,45,0.00,,---,0.00,VWS V14.01,2013-06-05 01:08:00,
2013-06-04 21:13:00,53.1,33.4,0.00,East,90,0.0,0.0,47,0.00,,---,0.00,VWS V14.01,2013-06-05 01:13:00,
2013-06-04 21:18:00,53.1,33.4,0.00,East,90,0.0,0.0,47,0.00,,---,0.00,VWS V14.01,2013-06-05 01:18:00,
2013-06-04 21:23:00,52.7,33.6,0.00,East,90,0.0,0.0,48,0.00,,---,0.00,VWS V14.01,2013-06-05 01:23:00,
2013-06-04 21:28:00,52.5,33.4,0.00,East,90,0.0,0.0,48,0.00,,---,0.00,VWS V14.01,2013-06-05 01:28:00,
2013-06-04 21:33:00,52.5,33.4,0.00,East,90,0.0,0.0,48,0.00,,---,0.00,VWS V14.01,2013-06-05 01:33:00,
2013-06-04 21:38:00,52.2,33.1,0.00,East,90,0.0,0.0,48,0.00,,---,0.00,VWS V14.01,2013-06-05 01:38:00,
2013-06-04 21:43:00,51.6,33.1,0.00,East,90,0.0,0.0,49,0.00,,---,0.00,VWS V14.01,2013-06-05 01:43:00,
2013-06-04 21:48:00,51.6,33.6,0.00,East,90,0.0,0.0,50,0.00,,---,0.00,VWS V14.01,2013-06-05 01:48:00,
2013-06-04 21:53:00,51.4,33.4,0.00,East,90,0.0,0.0,50,0.00,,---,0.00,VWS V14.01,2013-06-05 01:53:00,
2013-06-04 21:58:00,51.4,33.4,0.00,East,90,0.0,0.0,50,0.00,,---,0.00,VWS V14.01,2013-06-05 01:58:00,
2013-06-04 22:03:00,51.4,33.9,0.00,East,90,0.0,0.0,51,0.00,,---,0.00,VWS V14.01,2013-06-05 02:03:00,
2013-06-04 22:08:00,51.4,33.9,0.00,East,90,0.0,0.0,51,0.00,,---,0.00,VWS V14.01,2013-06-05 02:08:00,
2013-06-04 22:13:00,51.6,34.6,0.00,East,90,0.0,0.0,52,0.00,,---,0.00,VWS V14.01,2013-06-05 02:13:00,
2013-06-04 22:18:00,51.6,34.6,0.00,East,90,0.0,0.0,52,0.00,,---,0.00,VWS V14.01,2013-06-05 02:18:00,
2013-06-04 22:23:00,51.4,34.9,0.00,East,90,0.0,0.0,53,0.00,,---,0.00,VWS V14.01,2013-06-05 02:23:00,
2013-06-04 22:28:00,51.1,34.6,0.00,East,90,0.0,0.0,53,0.00,,---,0.00,VWS V14.01,2013-06-05 02:28:00,
2013-06-04 22:33:00,51.1,35.0,0.00,East,90,0.0,0.0,54,0.00,,---,0.00,VWS V14.01,2013-06-05 02:33:00,
2013-06-04 22:38:00,51.1,35.0,0.00,East,90,0.0,0.0,54,0.00,,---,0.00,VWS V14.01,2013-06-05 02:38:00,
2013-06-04 22:43:00,50.9,34.9,0.00,East,90,0.0,0.0,54,0.00,,---,0.00,VWS V14.01,2013-06-05 02:43:00,
2013-06-04 22:48:00,50.9,34.9,0.00,East,90,0.0,0.0,54,0.00,,---,0.00,VWS V14.01,2013-06-05 02:48:00,
2013-06-04 22:53:00,50.9,35.3,0.00,East,90,0.0,0.0,55,0.00,,---,0.00,VWS V14.01,2013-06-05 02:53:00,
2013-06-04 22:58:00,50.9,35.3,0.00,East,90,0.0,0.0,55,0.00,,---,0.00,VWS V14.01,2013-06-05 02:58:00,
2013-06-04 23:03:00,50.5,35.4,0.00,East,90,0.0,0.0,56,0.00,,---,0.00,VWS V14.01,2013-06-05 03:03:00,
2013-06-04 23:08:00,50.5,35.4,0.00,SW,221,0.0,0.0,56,0.00,,---,0.00,VWS V14.01,2013-06-05 03:08:00,
2013-06-04 23:13:00,50.5,35.4,0.00,SW,221,0.0,0.0,56,0.00,,---,0.00,VWS V14.01,2013-06-05 03:13:00,
2013-06-04 23:18:00,50.2,35.1,0.00,SW,221,0.0,0.0,56,0.00,,---,0.00,VWS V14.01,2013-06-05 03:18:00,
2013-06-04 23:23:00,50.2,35.1,0.00,SW,220,0.0,0.0,56,0.00,,---,0.00,VWS V14.01,2013-06-05 03:23:00,
2013-06-04 23:28:00,50.0,34.9,0.00,SW,220,0.0,0.0,56,0.00,,---,0.00,VWS V14.01,2013-06-05 03:28:00,
2013-06-04 23:33:00,50.0,34.9,0.00,SE,131,0.0,0.0,56,0.00,,---,0.00,VWS V14.01,2013-06-05 03:33:00,
2013-06-04 23:38:00,50.0,34.9,0.00,ESE,112,0.0,2.2,56,0.00,,---,0.00,VWS V14.01,2013-06-05 03:38:00,
2013-06-04 23:43:00,50.2,35.5,0.00,ESE,113,0.0,0.0,57,0.00,,---,0.00,VWS V14.01,2013-06-05 03:43:00,
2013-06-04 23:48:00,50.2,35.5,0.00,ESE,119,0.0,0.0,57,0.00,,---,0.00,VWS V14.01,2013-06-05 03:48:00,
2013-06-04 23:53:00,50.2,35.1,0.00,ESE,119,0.0,0.0,56,0.00,,---,0.00,VWS V14.01,2013-06-05 03:53:00,
2013-06-04 23:58:00,50.2,35.1,0.00,WNW,284,0.0,0.0,56,0.00,,---,0.00,VWS V14.01,2013-06-05 03:58:00,